www.pogodaiklimat.ru

Погода и климат >> Архив погоды >> Аргентина >> San Martin


ПОГОДА в San Martin

  • Прогноз погоды в San Martin
  • Монитор погоды в San Martin
  • Климат города

АРХИВ ПОГОДЫ в San Martin

Время (UTC), дата Ветер
(напр.,м/с)
 
Видим.   Явления Облачность Т
(С)
Тd
(С)
f
(%)
Тe
(С)
Тes
(С)
Комфортность P
(гПа)
Po
(гПа)
Тmin
(С)
Tmax
(С)
R
(мм)
R24
(мм)
S
(см)
00 14.11 штиль 0 15 км ясно +15.4 +3.6 45 +15 +15 1011.4 936.8 +15.1 +23.1
03 14.11 штиль 0 15 км ясно +11.8 +5.1 63 +11 +11 1012.2 937.8
06 14.11 штиль 0 15 км ясно +9.0 +4.7 74 +8 +8 1010.4 935.6
09 14.11 Ю 3 15 км ясно +9.0 +5.4 78 +7 +7 1010.2 935.6
12 14.11 ЮЗ 3 15 км ясно +14.7 +7.0 60 +14 +19 1011.5 936.8 +7.8 +15.4
15 14.11 СВ 4 15 км ясно +22.9 +1.9 25 +22 +34 комфорт 1009.3 935.3
18 14.11 СЗ 4 15 км ясно +26.9 -1.7 15 +25 +37 комфорт 1006.2 932.6
21 14.11 СВ 4 15 км ясно +28.0 -2.4 14 +25 +29 комфорт 1003.7 930.4
00 15.11 штиль 0 15 км ясно +20.6 -2.5 21 +21 +21 комфорт 1004.6 931.0 +14.7 +28.4
03 15.11 СВ 1 15 км ясно +19.0 -0.6 27 +20 +20 1003.8 931.0
06 15.11 штиль 0 15 км ясно +15.0 +4.7 50 +15 +15 1002.1 929.4
09 15.11 штиль 0 15 км ясно +12.8 +6.1 64 +13 +13 1001.7 929.0
12 15.11 Ю 1 15 км ясно +20.4 +4.7 36 +22 +28 комфорт 1003.5 930.6 +12.2 +20.6
15 15.11 ЮЗ 1 15 км ясно +27.5 +4.2 22 +26 +48 жарко 1002.9 930.8
18 15.11 ЮВ 3 15 км ясно +31.5 +4.3 18 +29 +46 жарко 1001.4 929.4
21 15.11 ЮВ 1 15 км ясно +31.7 +4.7 18 +29 +36 жарко 1001.9 929.6
00 16.11 ЮВ 9 15 км ясно +24.0 +7.4 34 +24 +24 комфорт 1006.9 934.2 +20.4 +32.3
03 16.11 Ю 4 15 км ясно +19.0 +7.2 46 +19 +19 1011.0 938.2
06 16.11 ЮВ 4 15 км ясно +15.7 +6.4 54 +15 +15 1009.6 937.0
09 16.11 штиль 0 15 км ясно +14.4 +2.4 44 +14 +14 1008.7 936.1
12 16.11 ЮВ 3 15 км ясно +19.2 +1.2 30 +20 +24 1008.7 935.8 +13.7 +24.0
15 16.11 В 1 15 км ясно +23.4 +2.9 26 +23 +44 комфорт 1006.1 933.3
18 16.11 СЗ 1 15 км ясно +26.8 +4.7 24 +26 +48 жарко 1001.5 929.0
21 16.11 ЮЗ 1 15 км ясно +27.8 +5.4 24 +27 +33 жарко 999.4 927.0
00 17.11 штиль 0 15 км ясно +23.2 +9.9 43 +25 +25 комфорт 999.4 927.0 +19.2 +29.1
03 17.11 штиль 0 15 км ясно +20.2 +9.9 52 +21 +21 комфорт 1000.7 928.4
06 17.11 ЮЗ 3 15 км ясно +18.9 +8.9 52 +20 +20 999.7 927.7
09 17.11 ЮЗ 4 15 км ясно +17.3 +8.2 55 +17 +17 1000.3 928.2
12 17.11 ЮВ 9 15 км ясно +19.0 +10.2 57 +19 +19 1005.5 932.6 +16.1 +23.2
15 17.11 ЮВ 7 15 км 3/0
[Ac As]
+23.6 +7.6 36 +24 +29 комфорт 1006.0 933.4
18 17.11 ЮВ 7 15 км 4/0
[Ac As]
+26.0 +6.0 28 +26 +30 жарко 1004.4 932.0
21 17.11 ЮВ 4 15 км 3/0
[Ac As]
+25.5 +5.1 27 +25 +28 комфорт 1005.5 932.8
00 18.11 ЮВ 7 15 км 5/0
[Ac As]
+17.4 +0.7 32 +17 +17 1012.8 938.8 +17.4 +27.0
03 18.11 Ю 1 15 км ясно +13.0 +5.1 59 +13 +13 1016.1 941.8
06 18.11 штиль 0 15 км ясно +13.0 +3.5 52 +13 +13 1016.0 942.1
09 18.11 ЮЗ 1 15 км ясно +11.0 +5.1 67 +11 +11 1015.5 941.3
12 18.11 ЮЗ 1 15 км ясно +17.2 +5.6 46 +18 +24 1016.5 942.0 +10.5 +17.4
15 18.11 СВ 3 15 км ясно +22.5 +1.2 24 +22 +39 комфорт 1014.3 940.1
18 18.11 СВ 7 15 км ясно +25.4 +1.3 21 +24 +30 комфорт 1011.0 937.4
21 18.11 С 3 15 км ясно +26.6 +0.1 18 +25 +30 комфорт 1008.1 934.6
00 19.11 штиль 0 15 км ясно +21.4 +7.3 40 +22 +22 комфорт 1009.1 935.6 +17.2 +27.5
03 19.11 штиль 0 15 км ясно +18.4 +4.4 40 +19 +19 1009.0 935.8
06 19.11 штиль 0 15 км ясно +15.5 +5.6 52 +15 +15 1006.9 933.8
09 19.11 штиль 0 15 км ясно +13.5 +6.9 64 +13 +13 1006.8 933.7
12 19.11 СЗ 1 15 км ясно +20.6 +8.6 46 +23 +29 комфорт 1007.9 934.9 +12.7 +21.4
15 19.11 СВ 1 15 км ясно +27.0 +7.9 30 +27 +48 жарко 1005.6 933.2
18 19.11 СВ 4 15 км ясно +32.0 +7.2 21 +30 +43 жарко 1002.8 930.8
21 19.11 СЗ 1 15 км ясно +33.0 +7.6 21 +31 +38 жарко 1000.6 928.6
00 20.11 штиль 0 15 км ясно +27.4 +10.6 35 +28 +28 жарко 1002.8 930.9 +20.6 +33.0
03 20.11 СВ 1 15 км ясно +23.7 +8.2 37 +24 +24 комфорт 1004.2 932.5
06 20.11 штиль 0 15 км ясно +19.0 +10.8 59 +20 +20 1004.1 932.4
09 20.11 штиль 0 15 км ясно +18.0 +10.0 59 +18 +18 1005.3 933.6
12 20.11 ЮВ 7 15 км ясно +24.5 +8.9 37 +25 +27 комфорт 1007.5 935.7 +17.2 +27.4
15 20.11 ЮВ 3 15 км ясно +30.0 +5.2 21 +28 +45 жарко 1005.8 934.2
18 20.11 ЮВ 3 15 км ясно +33.8 +9.3 22 +33 +50 жарко 1002.2 930.9
21 20.11 СВ 1 15 км ясно +34.9 +9.3 21 +34 +40 очень
жарко
999.9 928.8

 

Местоположение метеостанции San Martin (Аргентина): широта -33.08 долгота -68.41 высота над уровнем моря 653 м.

В архиве по умолчанию представлена погода в San Martin за последнюю неделю. Архивные данные за месяц целиком и за предыдущие месяцы, начиная с января 2011 года, Вы можете получить, выбрав интересующий диапазон дат из раскрывающегося списка и нажав кнопку "Ввод!".


*Определитесь, кто Вы:
робот инопланетянин человек

Внимание! Время в таблицах - всемирное. Для получения местного времени необходимо прибавить поправку, которая в San Martin равна -3 ч.

Смотрите также архив погоды в соседних городах и на ближайших метеорологических станциях:

Погода в Mendoza (Аргентина) (44 км)
Погода в San Rafael (Аргентина) (167 км)
Погода в San Juan (Аргентина) (187 км)
Погода в San Luis (Аргентина) (193 км)
Погода в Santiago (Чили) (215 км)
Погода в Pudahuel (Чили) (223 км)
Погода в Malargue (Аргентина) (290 км)
Погода в Villa Reynolds (Аргентина) (290 км)
Погода в Punta Angeles (Чили) (301 км)
Погода в San Antonio (Чили) (302 км)

Пояснения к столбцам:

Ветер - указаны скорость ветра в м/с - средняя за 10 мин, порывы в срок и между сроками (в фигурных скобках) и направление, откуда дует ветер: С - северный, СВ - северо-восточный, В - восточный, ЮВ - юго-восточный, Ю - южный, ЮЗ - юго-западный, З - западный, СЗ - северо-западный.
Видимость - горизонтальная дальность видимости в метрах или километрах. При видимости от 1 до 10 км при отсутствии осадков обычно наблюдается дымка, при ухудшении видимости до 1 км и менее - туман. В сухую погоду видимость может ухудшаться дымом, пылью или мглою.
Явления - указаны атмосферные явления, наблюдавшиеся в срок или в последний час перед сроком; фигурными скобками обозначены явления, наблюдавшиеся между сроками (за 1-3 часа до срока); квадратными скобками обозначены град или гололедные отложения с указанием их диаметра в мм.
Облачность - указаны через наклонную черту общая и нижняя облачность в баллах и высота нижней границы облаков в метрах; квадратными скобками обозначены формы облаков: Ci - перистые, Cs - перисто-слоистые, Cc - перисто-кучевые, Ac - высококучевые, As - высокослоистые, Sc - слоисто-кучевые, Ns - слоисто-дождевые, Cu - кучевые, Cb - кучево-дождевые. Подробнее классификацию облаков см. в Атласе облаков (PDF).
T - Температура воздуха - температура, измеренная на высоте 2 м над землей.
Td - Температура точки росы - температура, при понижении до которой содержащийся в воздухе водяной пар достигнет насыщения.
f - Относительная влажность воздуха - влажноcть воздуха, измеренная на высоте 2 м над землей.
Te - Эффективная температура - температура, которую ощущает одетый по сезону человек в тени. Характеристика душности погоды. При расчете учитывается влияние влажности воздуха и скорости ветра на теплоощущения человека.
Tes - Эффективная температура на солнце - температура, которую ощущает человек, с поправкой на солнечный нагрев. Характеристика знойности погоды. Зависит от высоты солнца над горизонтом, облачности и скорости ветра. Ночью, в пасмурную погоду, а также при ветре 12 м/с и более поправка равна нулю.
P - Атмосферное давление - приведенное к уровню моря атмосферное давление.
Po - Атмосферное давление - измеренное на уровне метеостанции атмосферное давление.
Tmin - Минимальная температура - минимум температуры воздуха на высоте 2 м над землей.
Tmax - Максимальная температура - максимум температуры воздуха на высоте 2 м над землей.
R - Количество осадков - Количество выпавших осадков за период времени, мм. При наведении курсора мыши на число - период времени, за который выпало указанное количество осадков.
R24 - Количество осадков - Количество выпавших осадков за 24 часа, мм.
S - Снежный покров - Высота снежного покрова, см. При наведении курсора мыши на число - состояние снежного покрова и степень покрытия местности в баллах.